[[{"header":{"parameterUnit":"m.s-1","parameterCategory":1,"la1":30.2991,"la2":30.254,"lo1":-89.0895,"lo2":-89.0444,"dy":0.0017,"dx":0.0017,"nx":28,"ny":28,"refTime":"2025-06-23T03:00:00:Z","depth":0,"parameterNumber":2,"parameterNumberName":"U-component_of_WINDS"},"data":[0,0,0,0,0,0,0,0,0,0,0,0,0,0,0,0,0,0,0,0,0,0,0,0,0,0,0,0,0,0,0,0,0,0,0,0,0,0,0,0,0,0,0,0,0,0,0,0,0,0,0,0,0,0,0,0,0,0,1.7549,1.755,0,1.7674,1.7675,1.7677,1.7717,1.7716,1.7716,1.7715,1.7842,1.7846,1.785,0,0,0,0,0,0,0,0,0,0,0,0,0,1.7343,1.7346,1.7548,1.755,1.7552,1.7674,1.7675,1.7677,1.7717,1.7716,1.7716,1.7715,1.7841,1.7845,1.785,0,0,0,0,0,0,0,0,0,0,0,0,0,1.7446,1.7348,1.7548,1.7586,1.7591,1.7673,1.7675,1.7677,1.7717,1.7716,1.7715,1.7715,1.7839,1.7845,1.7851,1.7903,0,0,1.7868,1.7871,0,0,0,0,0,0,0,0,1.744,1.7454,1.7579,1.7584,1.7589,1.7679,1.7649,1.7753,1.7717,1.7669,1.7715,1.7714,1.7788,1.7798,1.7824,1.7909,1.7915,1.7869,1.7872,1.7875,1.7877,0,0,0,0,0,0,0,1.7433,1.7449,1.7598,1.7581,1.7587,1.7597,1.7611,1.7669,1.7732,1.7673,1.7677,1.7691,1.7791,1.7818,1.7827,1.7917,1.7869,1.7874,1.7878,1.788,1.8052,1.8053,0,0,0,0,0,0,1.742,1.7443,1.7594,1.7602,1.7511,1.7601,1.7617,1.7651,1.7731,1.7743,1.7691,1.7692,1.7808,1.782,1.7831,1.7898,1.7875,1.788,1.7884,1.8051,1.8052,1.8054,0,0,0,0,0,0,1.7415,1.7433,1.7589,1.7523,1.7544,1.7606,1.7644,1.7654,1.7681,1.7745,1.7756,1.7708,1.7808,1.7823,1.7885,1.7903,1.7883,1.7888,1.805,1.8052,1.8053,1.8032,0,0,0,0,0,0,1.7409,1.7431,1.7452,1.7523,1.7547,1.7641,1.7645,1.7657,1.7691,1.7693,1.7763,1.7774,1.7808,1.7876,1.7891,1.7911,1.7893,1.8048,1.8051,1.8052,1.8031,1.8033,1.8034,0,0,0,0,0,1.7402,1.7441,1.7453,1.7471,1.7575,1.7642,1.7655,1.7695,1.7692,1.7714,1.7755,1.7772,1.7899,1.7882,1.7899,1.7921,1.8048,1.805,1.8052,1.8031,1.8033,1.8034,0,0,0,0,0,0,1.7369,1.7451,1.7465,1.7529,1.7578,1.7649,1.7677,1.7695,1.7746,1.7746,1.7793,1.7808,1.7867,1.79,1.788,1.7976,1.7974,1.798,1.7952,1.7954,1.7955,1.7945,1.7898,0,0,0,0,0,1.737,1.7418,1.7487,1.7536,1.756,1.7614,1.7645,1.7671,1.7724,1.7745,1.7791,1.7841,1.7893,1.7926,1.7977,1.8037,1.8053,1.8061,1.8062,1.8062,1.8067,1.8101,1.8105,1.8061,1.8061,1.8061,0,0,1.737,1.7421,1.7449,1.7531,1.7572,1.7621,1.7631,1.7682,1.7718,1.7753,1.7814,1.785,1.7909,1.797,1.8,1.8,1.8082,1.8066,1.8066,1.8069,1.8104,1.8108,1.8111,1.8063,1.8063,1.8063,0,0,1.7397,1.744,1.7486,1.7528,1.7591,1.7626,1.7637,1.7705,1.773,1.7793,1.782,1.7863,1.7951,1.7992,1.8025,1.8067,1.8084,1.8083,1.8089,1.8121,1.8125,1.8128,1.8142,1.8147,1.8087,1.8087,1.8087,0,1.739,1.7464,1.7507,1.7557,1.7592,1.7626,1.7672,1.771,1.7786,1.7809,1.7809,1.792,1.7963,1.8034,1.8044,1.807,1.8083,1.8074,1.8121,1.8125,1.8128,1.8143,1.8148,1.8086,1.8086,1.8086,1.8086,0,1.7452,1.7503,1.7533,1.7606,1.7644,1.7692,1.7742,1.7776,1.7799,1.7834,1.7897,1.795,1.8012,1.8031,1.8054,1.8106,1.8104,1.8112,1.811,1.8131,1.8145,1.8151,1.8085,1.8085,1.8086,1.8086,0,0,1.746,1.7557,1.7567,1.76,1.7673,1.7713,1.7762,1.7823,1.7851,1.7903,1.7945,1.8019,1.8027,1.8063,1.8091,1.812,1.815,1.8125,1.8127,1.8127,1.821,1.8202,1.8208,1.8162,1.8164,1.8165,1.8204,0,1.7494,1.7584,1.7624,1.7696,1.7743,1.7777,1.782,1.7869,1.7904,1.7949,1.7988,1.8039,1.8046,1.8068,1.8098,1.814,1.8167,1.8138,1.8201,1.8203,1.8184,1.8215,1.8208,1.8243,1.821,1.8211,1.8212,0,1.7546,1.7599,1.7675,1.7742,1.7763,1.7801,1.786,1.7904,1.796,1.7983,1.8024,1.8051,1.8104,1.81,1.8173,1.8152,1.8181,1.8205,1.8208,1.8214,1.8207,1.8221,1.8255,1.8259,1.8221,1.822,1.822,0,1.7543,1.7633,1.769,1.7718,1.7797,1.7823,1.7857,1.7913,1.7947,1.7999,1.8022,1.8079,1.811,1.8154,1.8195,1.8189,1.8264,1.8264,1.8284,1.8283,1.8298,1.8296,1.8335,1.8318,1.8318,1.8318,1.8318,0,1.7577,1.7622,1.7689,1.7724,1.7776,1.7822,1.7871,1.7908,1.7957,1.8,1.8033,1.8072,1.8125,1.8171,1.8204,1.8259,1.8273,1.8293,1.8301,1.8289,1.8287,1.8308,1.8306,1.8319,1.8319,1.8319,1.8318,0,1.7581,1.7629,1.7693,1.7763,1.7782,1.7817,1.7877,1.7912,1.7949,1.8002,1.8018,1.8075,1.8131,1.8177,1.825,1.8273,1.833,1.834,1.831,1.8314,1.8332,1.833,1.8385,1.8394,1.8372,1.8372,1.8372,0,1.7599,1.7634,1.7709,1.774,1.7774,1.7824,1.7859,1.7906,1.7941,1.8008,1.8035,1.8093,1.8142,1.8229,1.8278,1.8334,1.8345,1.836,1.8353,1.834,1.8344,1.8341,1.8344,1.836,1.836,1.836,1.836,0,1.7625,1.7647,1.7697,1.7755,1.7797,1.7845,1.7893,1.7917,1.7973,1.8011,1.8068,1.8106,1.8181,1.8238,1.8299,1.8335,1.8356,1.8362,1.837,1.8358,1.8339,1.8349,1.8311,1.836,1.836,1.836,1.836,1.836,1.7636,1.7669,1.7727,1.7781,1.7823,1.7868,1.7905,1.7947,1.7996,1.806,1.8085,1.8144,1.8199,1.8284,1.832,1.8366,1.8369,1.838,1.8383,1.8384,1.8382,1.8333,1.8377,1.8377,1.8378,1.8378,1.8378,0,1.7663,1.7702,1.7752,1.782,1.7862,1.7881,1.7936,1.797,1.8021,1.8072,1.8119,1.8185,1.8241,1.8294,1.8352,1.8379,1.8391,1.8393,1.8391,1.8398,1.8377,1.8364,1.8383,1.8383,1.8383,1.8383,1.8383,1.8383,1.7682,1.7739,1.7768,1.7845,1.7884,1.7942,1.7972,1.8014,1.8054,1.8126,1.8173,1.8207,1.8259,1.8321,1.8373,1.8388,1.8407,1.8406,1.8423,1.8401,1.84,1.8399,1.8387,1.841,1.841,1.8441,1.8441,1.8441]},{"header":{"parameterUnit":"m.s-1","parameterCategory":1,"la1":30.2991,"la2":30.254,"lo1":-89.0895,"lo2":-89.0444,"dy":0.0017,"dx":0.0017,"nx":28,"ny":28,"refTime":"2025-06-23T03:00:00:Z","depth":0,"parameterNumber":3,"parameterNumberName":"V-component_of_WINDS"},"data":[0,0,0,0,0,0,0,0,0,0,0,0,0,0,0,0,0,0,0,0,0,0,0,0,0,0,0,0,0,0,0,0,0,0,0,0,0,0,0,0,0,0,0,0,0,0,0,0,0,0,0,0,0,0,0,0,0,0,1.1764,1.1763,0,1.1651,1.165,1.1649,1.1571,1.157,1.157,1.1569,1.1449,1.1447,1.1444,0,0,0,0,0,0,0,0,0,0,0,0,0,1.1907,1.1905,1.1764,1.1763,1.1761,1.1651,1.165,1.1648,1.1571,1.157,1.157,1.1569,1.145,1.1447,1.1444,0,0,0,0,0,0,0,0,0,0,0,0,0,1.1825,1.1905,1.1764,1.171,1.1704,1.1652,1.165,1.1648,1.1571,1.157,1.157,1.1569,1.1451,1.1447,1.1443,1.1436,0,0,1.1431,1.1429,0,0,0,0,0,0,0,0,1.183,1.182,1.1719,1.1713,1.1706,1.1624,1.1656,1.1577,1.1571,1.1621,1.1569,1.1568,1.1508,1.1499,1.148,1.143,1.1425,1.1431,1.1428,1.1427,1.1425,0,0,0,0,0,0,0,1.1836,1.1824,1.1719,1.1718,1.171,1.1689,1.1676,1.1641,1.1571,1.1617,1.1611,1.1599,1.1504,1.1484,1.1476,1.1423,1.1431,1.1427,1.1425,1.1423,1.136,1.136,0,0,0,0,0,0,1.1851,1.1829,1.1723,1.1716,1.1767,1.1687,1.1673,1.1652,1.1571,1.1558,1.16,1.1596,1.1491,1.1481,1.1472,1.1457,1.1427,1.1423,1.1421,1.1359,1.136,1.1361,0,0,0,0,0,0,1.1854,1.1842,1.1727,1.1771,1.1755,1.1686,1.1662,1.165,1.1629,1.1558,1.1545,1.1592,1.149,1.1477,1.1445,1.1451,1.1421,1.1417,1.1358,1.1359,1.136,1.1427,0,0,0,0,0,0,1.1858,1.1844,1.1841,1.1772,1.1753,1.1704,1.1663,1.1648,1.1623,1.1617,1.1547,1.1535,1.1488,1.1452,1.1441,1.1445,1.1414,1.1357,1.1359,1.136,1.1424,1.143,1.1436,0,0,0,0,0,1.1864,1.1864,1.1841,1.1829,1.1749,1.1705,1.1694,1.1642,1.1624,1.162,1.1574,1.1537,1.1453,1.1449,1.1437,1.144,1.1357,1.1358,1.136,1.1421,1.1429,1.1435,0,0,0,0,0,0,1.1934,1.1854,1.1828,1.1806,1.1763,1.1692,1.1686,1.1652,1.1612,1.1608,1.1543,1.1528,1.1502,1.1467,1.1465,1.1427,1.14,1.1399,1.1451,1.1458,1.1463,1.1472,1.1411,0,0,0,0,0,1.1947,1.192,1.185,1.1837,1.1817,1.1756,1.1734,1.1698,1.1651,1.1632,1.1583,1.1537,1.15,1.1477,1.1439,1.1419,1.1401,1.1414,1.142,1.1425,1.1425,1.141,1.1415,1.1366,1.1366,1.1366,0,0,1.1974,1.1926,1.1913,1.185,1.1813,1.1785,1.1741,1.1713,1.169,1.1627,1.1594,1.1557,1.1501,1.1474,1.146,1.1445,1.1435,1.1427,1.1432,1.1429,1.1413,1.1417,1.1422,1.1367,1.1367,1.1367,0,0,1.2007,1.197,1.1954,1.1918,1.1862,1.1821,1.1817,1.1751,1.1725,1.1691,1.1642,1.1614,1.1552,1.1513,1.1486,1.1505,1.1469,1.1494,1.1524,1.1511,1.1515,1.1518,1.1524,1.1527,1.1494,1.1495,1.1495,0,1.2047,1.2004,1.195,1.1925,1.1898,1.1841,1.1823,1.179,1.1725,1.1707,1.1691,1.1611,1.1569,1.1533,1.1537,1.1517,1.151,1.1502,1.1519,1.1522,1.1524,1.1528,1.1531,1.1498,1.1498,1.1497,1.1497,0,1.2054,1.2025,1.2019,1.1959,1.1931,1.191,1.1852,1.183,1.1796,1.1756,1.1721,1.1669,1.1619,1.1608,1.1574,1.1566,1.1558,1.1532,1.1503,1.1533,1.1536,1.1537,1.1503,1.1502,1.1501,1.15,0,0,1.2129,1.2039,1.2038,1.2009,1.1944,1.1919,1.1895,1.1847,1.183,1.1786,1.1763,1.1712,1.1686,1.1655,1.1616,1.1605,1.1622,1.1579,1.1576,1.1588,1.1608,1.1628,1.1632,1.1598,1.1598,1.1598,1.1613,0,1.2152,1.2107,1.2058,1.2029,1.2001,1.1946,1.1924,1.1881,1.1842,1.1811,1.1768,1.1733,1.1703,1.1683,1.1669,1.1623,1.1625,1.1621,1.1574,1.1573,1.1589,1.1633,1.1654,1.1671,1.1614,1.1614,1.1614,0,1.2173,1.2133,1.2103,1.2039,1.2025,1.2007,1.1959,1.1931,1.1879,1.1852,1.1818,1.1777,1.1746,1.1722,1.1678,1.1677,1.1655,1.1629,1.1628,1.1621,1.1595,1.1627,1.1675,1.1677,1.1616,1.1615,1.1615,0,1.2229,1.2168,1.2142,1.2119,1.2044,1.2033,1.2001,1.1949,1.1923,1.1881,1.1863,1.1818,1.1792,1.1757,1.1704,1.1691,1.1666,1.1637,1.1641,1.1642,1.1637,1.1638,1.1682,1.1625,1.1625,1.1625,1.1624,0,1.2259,1.2243,1.2166,1.215,1.2129,1.2071,1.2051,1.2014,1.1969,1.1943,1.1892,1.1868,1.18,1.1767,1.1725,1.1695,1.1684,1.166,1.1649,1.1664,1.1667,1.1648,1.1645,1.1625,1.1625,1.1625,1.1625,0,1.2319,1.2267,1.2234,1.2167,1.2149,1.2137,1.2077,1.2059,1.2018,1.1985,1.1974,1.191,1.1869,1.1813,1.1754,1.1726,1.1701,1.1684,1.1719,1.1712,1.1719,1.1719,1.1752,1.1752,1.1696,1.1696,1.1697,0,1.2341,1.2327,1.2258,1.2238,1.2208,1.2176,1.215,1.2093,1.2067,1.2008,1.1996,1.1951,1.1913,1.185,1.1797,1.1752,1.1732,1.1747,1.1725,1.1741,1.1731,1.1733,1.173,1.1752,1.1753,1.1754,1.1754,0,1.2386,1.2361,1.2327,1.2283,1.2254,1.2216,1.2176,1.2161,1.2095,1.2069,1.2027,1.1998,1.1939,1.1895,1.1843,1.1807,1.1769,1.1762,1.176,1.1775,1.1796,1.1784,1.1732,1.1761,1.176,1.176,1.1759,1.1759,1.2427,1.2411,1.2361,1.2323,1.2287,1.2251,1.223,1.2186,1.2152,1.21,1.2068,1.2028,1.1975,1.1901,1.1868,1.1835,1.1819,1.1817,1.1816,1.1816,1.1821,1.1802,1.1825,1.1825,1.1824,1.1824,1.1824,0,1.2468,1.2433,1.2399,1.2345,1.2316,1.2284,1.2238,1.2215,1.2181,1.2136,1.2099,1.2051,1.2008,1.1952,1.1905,1.1889,1.187,1.1878,1.1878,1.187,1.1838,1.1844,1.1894,1.1894,1.1894,1.1894,1.1894,1.1894,1.2486,1.2459,1.2428,1.2381,1.2345,1.2307,1.2283,1.2248,1.2212,1.2161,1.2126,1.209,1.204,1.1988,1.1947,1.1931,1.1916,1.1929,1.1908,1.1879,1.1873,1.1867,1.1872,1.1926,1.1927,1.1942,1.1943,1.1943]}]]